Погода в Малой Царевщине

Россия / Самарская область     53°26′49″N   50°10′39″E
темп.,
°C
ветер,
м/с
пор.,
м/с
влажн.,
%
обл.,
%
осадки,
мм/ч
давл.,
гПа
погр.,
м
18 апреля, вс
вс1801:00+9св37663 0.0 1019196
04:00+7св39689 0.0 1019204
07:00+7св38633 0.0 1019278
10:00+12всв564395 0.0 1019598
13:00+15св6639100 0.0 10181071
16:00+16св67345 0.0 10181437
19:00+13всв594370 0.0 1018311
22:00+10св6125758 0.0 1020469
19 апреля, пн
пн1901:00+7всв61270100 0.0 1021484
04:00+5св6127256 0.0 1022450
07:00+4всв71269100 0.0 1022543
10:00+8в8962100 0.0 1023973
13:00+9в81055100 0.0 10231349
16:00+8в81058100 0.0 10241167
19:00+7в61063100 0.0 10251167
22:00+6в51260100 0.0 1026993
20 апреля, вт
вт2001:00+6в5116074 0.0 1027772
04:00+3вюв612535 0.0 1029502
07:00+2вюв612545 0.0 1031620
10:00+5вюв810410 0.0 1031952
13:00+8вюв810320 0.0 10301358
16:00+9вюв81028100 0.0 10291488
19:00+8вюв61138100 0.0 1030532
22:00+5вюв51247100 0.0 1030437
21 апреля, ср
ср2101:00+4юв61549100 0.0 1029666
04:00+2юв71651100 0.0 1029678
07:00+2юв71553100 0.0 1029737
10:00+6юв91439100 0.0 1028873
13:00+8ююв81237100 0.0 10281053
16:00+9ююв81339100 0.0 10271165
19:00+8ю71248100 0.0 1028986
22:00+6ю61267100 0.4 10281070
22 апреля, чт
чт2201:00+5ююв71383100 1.1 1029910
04:00+4ююв71388100 2.2 1029718
07:00+4ююв61393100 1.8 1030748
10:00+4ююв51196100 4.0 1030680
13:00+5ююв51086100 0.7 1031662
16:00+5ююв51083100 0.8 1031614
19:00+4ююв4990100 0.7 1032483
22:00+4ююв4994100 1.8 1031487